#timestamp,LO_Frequency,Hit,StdDev 
1509501615.4,286046987.3,N
1509501635.3,286046990.8,N
1509501655.1,286046991.4,N
1509501675.8,286046988.6,N
1509501695.7,286046992.9,N
1509501715.5,286046992.9,N
1509501735.4,286046993.8,N
1509501755.2,286046995.3,N
1509501775.0,286046993.0,N
1509501775.9,286046993.0,N
1509501795.8,286046990.4,N
1509501815.6,286046992.1,N
1509501835.4,286046993.3,N
1509501855.3,286046993.9,N
1509501875.1,286046998.7,N
1509501895.8,286046998.8,N
1509501915.7,286046999.2,N
1509501935.5,286046999.3,N
1509501955.3,286047000.9,N
1509501975.2,286047002.1,N
1509501995.0,286047002.0,N
1509501995.9,286047002.0,N
1509502015.7,286047000.4,N
1509502035.6,286047000.3,N
1509502055.4,286047000.3,N
1509502075.2,286046997.6,N
1509502095.1,286046996.0,N
1509502096.0,286046996.0,N
1509502115.8,286046999.6,N
1509502135.7,286046999.2,N
1509502155.5,286046999.2,N
1509502175.3,286047000.8,N
1509502195.2,286047000.8,N
1509502215.9,286046994.9,N
1509502235.7,286046998.3,N
1509502255.6,286047002.2,N
1509502275.4,286047001.9,N
1509502295.2,286047002.5,N
1509502315.1,286046999.8,N
1509502316.0,286046999.8,N
1509502335.8,286047000.1,N
1509502355.6,286047001.4,N
1509502375.5,286047000.2,N
1509502395.3,286047003.9,N
1509502415.1,286047001.4,N
1509502435.9,286047004.9,N
1509502455.7,286047005.3,N
1509502475.5,286047004.1,N
1509502495.4,286047003.2,N
1509502515.2,286047004.8,N
1509502535.0,286047006.2,N
1509502535.9,286047006.2,N
1509502555.8,286047009.0,Y
1509502575.6,286047008.0,P
1509502595.4,286047008.3,N
1509502615.3,286047012.0,P
1509502635.1,286047010.0,N
1509502655.9,286047012.3,Y
1509502675.7,286047003.4,P
1509502695.5,286047003.3,N
1509502715.4,286047002.9,N
1509502735.2,286047003.8,N
1509502755.0,286047000.0,N
1509502755.9,286047000.0,N
1509502775.8,286047004.1,N
1509502795.6,286047006.0,N
1509502815.4,286047004.9,N
1509502835.3,286047007.6,Y
1509502855.1,286047002.3,P
1509502875.8,286047000.6,N
1509502895.7,286047000.3,N
1509502915.5,286046999.7,N
1509502935.3,286047000.4,N
1509502955.2,286046999.1,N
1509502975.0,286046997.5,N
1509502975.9,286046997.5,N
1509502995.7,286046994.4,N
1509503015.6,286046992.3,Y
1509503035.4,286046994.5,P
1509503055.3,286046993.4,N
1509503075.1,286046995.6,N
1509503076.0,286046995.6,N
1509503095.8,286046992.4,Y
1509503115.7,286046990.5,P
1509503135.5,286046989.6,P
1509503155.3,286046987.1,P
1509503175.2,286046990.4,Y
1509503195.0,286047001.2,P
1509503195.9,286047001.2,N
1509503215.8,286046999.0,N
1509503235.6,286046997.6,N
1509503255.4,286046996.6,N
1509503275.3,286046999.5,N
1509503295.1,286046997.5,N
1509503296.0,286046997.5,N
1509503315.8,286046994.4,N
1509503335.7,286046990.0,Y
1509503355.5,286046990.2,P
1509503375.3,286046997.6,N
1509503395.2,286046994.4,N
1509503415.9,286046991.7,N
1509503435.7,286046997.5,N
1509503455.6,286046995.5,N
1509503475.4,286046994.4,N
1509503495.2,286046992.7,N
1509503515.1,286046993.5,N
1509503516.0,286046993.5,N
1509503535.8,286046990.2,Y
1509503555.7,286046999.4,P
1509503575.5,286046998.3,N
1509503595.3,286047000.2,N
1509503615.2,286046997.0,N
1509503635.9,286046995.5,N
1509503655.7,286047000.1,N
1509503675.6,286047001.5,N
1509503695.4,286047004.3,N
1509503715.2,286047001.1,N
1509503735.1,286046997.1,N
1509503736.0,286046997.1,N
1509503755.8,286046998.9,N
1509503775.6,286047002.8,N
1509503795.5,286047000.0,N
1509503815.3,286046996.9,N
1509503835.1,286047002.0,N
1509503855.9,286047000.5,N
1509503875.7,286047002.2,N
1509503895.5,286047001.0,N
1509503915.4,286046998.4,N
1509503935.2,286046999.7,N
1509503955.0,286047001.6,N
1509503955.9,286047001.6,N
1509503975.8,286047000.5,N
1509503995.6,286046998.3,N
1509504015.4,286047001.9,N
1509504035.3,286047007.4,Y
1509504055.1,286047003.2,P
1509504075.9,286047003.0,N
1509504095.7,286047004.3,N
1509504115.5,286046999.9,N
1509504135.4,286047000.6,N
1509504155.2,286046999.1,N
1509504175.0,286046997.5,N
1509504175.9,286046997.5,N
1509504195.8,286046997.5,N
1509504215.6,286046997.0,N
1509504235.4,286046998.0,N
1509504255.3,286046998.8,N
1509504275.1,286047002.5,N
1509504276.0,286047002.5,N
1509504295.8,286047002.0,N
1509504315.7,286047004.4,N
1509504335.5,286047001.4,N
1509504355.3,286047004.4,N
1509504375.2,286047002.0,N
1509504395.9,286046998.6,N
1509504415.7,286046998.1,N
1509504435.6,286047003.1,N
1509504455.4,286047004.7,N
1509504475.2,286047007.0,N
1509504495.1,286047006.9,N
1509504496.0,286047006.9,N
1509504515.8,286047008.9,N
1509504535.6,286047010.0,Y
1509504555.5,286047008.6,P
1509504575.3,286047006.4,N
1509504595.1,286047008.8,P
1509504615.9,286047010.3,Y
1509504635.7,286047003.1,P
1509504655.6,286047004.0,N
1509504675.4,286047005.5,P
1509504695.2,286047007.2,Y
1509504715.1,286047001.8,P
1509504716.0,286047001.8,N
1509504735.8,286047002.3,N
1509504755.6,286047002.8,N
1509504775.5,286047001.4,N
1509504795.3,286046998.1,N
1509504815.1,286046999.4,N
1509504835.9,286046999.6,N
1509504855.7,286046998.9,N
1509504875.5,286046998.5,N
1509504895.4,286046999.8,N
1509504915.2,286046998.1,N
1509504935.0,286046999.2,N
1509504936.0,286046999.2,N
1509504955.8,286046999.0,N
1509504975.6,286046998.5,N
1509504995.5,286047001.1,N
1509505015.3,286046999.5,N
1509505035.1,286046996.3,N
1509505055.9,286046991.4,Y
1509505075.7,286046989.6,P
1509505095.5,286046987.8,N
1509505115.4,286046985.7,N
1509505135.2,286046988.0,N
1509505155.0,286046988.5,N
1509505155.9,286046988.5,N
1509505175.8,286046989.2,N
1509505195.6,286046991.6,N
